Location: Ford County Road and Bridge Department
(37.7686°N, 99.9762°W)
Time: 21:50:22
(UTC+00:00)

N. Korean satellite - Pass Details

Date: 12 April 2020
Orbit: 455 x 504 km, 97.2° (Epoch: 06 June)

Event Time Altitude Azimuth Distance (km) Brightness Sun altitude
Rises 11:29:50 0° 31° (NNE) 2,478 11.0 -8.2°
Reaches altitude 10° 11:32:28 10° 54° (NE) 1,601 10.6 -7.7°
Maximum altitude 11:34:41 16° 94° (E) 1,270 9.9 -7.2°
Drops below altitude 10° 11:36:53 10° 135° (SE) 1,599 9.6 -6.8°
Sets 11:39:31 0° 157° (SSE) 2,475 10.2 -6.3°
